Accueil
METAR-TAF:

METAR-TAF

Aéroports :

Valence, France

Aéroport de Valence-Chabeuil

latitude: 44-54-58N, longitude: 4-58-06E, altitude: 160 m

Observation

Le bulletin a été fait il y a 1 heure et 18 minutes, à 18:00 UTC
Vent 11 kt de sud-est
Température 8°C
Humidité 81%
Pression 991 hPa
Visibilité 10 km ou plus
Nuages épars à une hauteur de 4900 ft
Nuages épars à une hauteur de 5800 ft
Ciel couvert à une hauteur de 8200 ft

METAR: LFLU 111800Z AUTO 14011KT 9999 SCT049 SCT058 OVC082 08/05 Q0991

Heure: 20:18 (19:18 UTC)


TAF: absent

Observations et prévisions météorologiques de plus de 4000 aéroports (messages METAR et TAF).

Les stations disponibles sont représentées par des disques jaunes et rouges sur la carte.

Passer la souris dessus pour voir le nom de la station.

Cliquer dessus pour voir les observations et prévisions météorologiques.

Pour changer de carte: cliquez sur les boutons verts avec une croix noire pour zoomer, sur le bouton vert avec un tiret pour effectuer un zoom arrière, ou sur les flèches vertes pour les cartes adjacentes.


METAR-TAF: